Location: Prairie State College
(41.5244°N, 87.6382°W)
Time: 19:26:20
(UTC-05:00)

ARGOS Delta rocket - Visible Passes

Search period start: 06 May 2016 00:00
Search period end: 16 May 2016 00:00
Orbit: 635 x 840 km, 96.5° (Epoch: 06 May)

Date Brightness Start Highest point End Pass type
(mag) Time Alt. Az. Time Alt. Az. Time Alt. Az.
10 May 6.6 04:37:05 10° ENE 04:39:02 13° E 04:41:00 10° ESE visible
12 May 6.5 04:45:03 10° NE 04:47:53 17° E 04:50:45 10° SE visible
14 May 6.3 04:53:18 10° NE 04:56:43 21° E 05:00:10 10° SE visible
